Regional Weather Roundup
Issued by NWS Sioux Falls, SD

Home | Current Version | Previous Version | Text Only | Print | Product List | Glossary On
Versions: 1 2 3 4 5 6 7 8 9 10 11 12 13 14 15 16 17 18 19 20 21 22 23 24 25 26 27 28 29 30 31 32 33 34 35 36 37 38 39 40 41 42 43 44 45 46 47 48 49 50
175
ASUS43 KFSD 301302
RWRFSD

WEATHER ROUNDUP FOR SE SOUTH DAKOTA/SW MINNESOTA/NW IOWA
NATIONAL WEATHER SERVICE SIOUX FALLS SD
800 AM CDT SAT JUL 30 2016

NOTE: "FAIR" INDICATES FEW OR NO CLOUDS BELOW 12,000 FEET WITH NO
SIGNIFICANT WEATHER AND OR OBSTRUCTIONS TO VISIBILITY.


SDZ038>040-050-052>070-301400-
SOUTHEAST SOUTH DAKOTA

CITY           SKY/WX    TMP DP  RH WIND       PRES   REMARKS
BROOKINGS      SUNNY     62  56  80 S5        30.04R
CHAMBERLAIN    CLOUDY    67  62  83 SE7       29.99S
HURON          SUNNY     63  57  81 S8        30.00R
MADISON        FAIR      59  59 100 S6        30.05R
MITCHELL       SUNNY     65  60  84 S8        30.01F
SIOUX FALLS    SUNNY     63  58  83 CALM      30.04R
WINNER         LGT RAIN  66  62  87 S10       29.98F
YANKTON        SUNNY     63  59  88 E3        30.03R
$$

MNZ071-072-080-081-089-090-097-098-301400-
SOUTHWEST MINNESOTA

CITY           SKY/WX    TMP DP  RH WIND       PRES   REMARKS
FAIRMONT       MOSUNNY   63  55  77 CALM      30.03R
JACKSON        SUNNY     61  55  82 CALM      30.05R
LUVERNE        SUNNY     55  52  88 CALM      30.06R
MARSHALL       SUNNY     63  57  81 SE3       30.04R
MONTEVIDEO     SUNNY     64  61  88 S3        30.05R
REDWOOD FALLS  SUNNY     61  55  81 CALM      30.03S
TRACY          SUNNY     66  59  78 SW5       30.04R
WINDOM         SUNNY     61  55  82 CALM      30.05R
WORTHINGTON    SUNNY     62  58  86 CALM      30.06R
$$

IAZ001>003-012>014-020>022-031-032-NEZ013-014-SDZ071-301400-
NORTHWEST IOWA

CITY           SKY/WX    TMP DP  RH WIND       PRES   REMARKS
CHEROKEE       SUNNY     60  60 100 CALM      30.05R
DENISON        SUNNY     61  61 100 CALM      30.03R
ESTHERVILLE    MOSUNNY   60  57  89 CALM      30.04R
LE MARS        SUNNY     61  57  88 CALM      30.06R
SHELDON        SUNNY     61  57  88 CALM      30.04R
SIOUX CITY     MOSUNNY   63  61  93 CALM      30.04R
SPENCER        SUNNY     62  57  83 CALM      30.05R
STORM LAKE     SUNNY     64  61  88 CALM      30.05R
$$

ABBREVIATIONS USED IN REMARKS
   TC - TEMPERATURE IN CELSIUS
  WCI - WIND CHILL INDEX
   HX - HEAT INDEX
  VSB - VISIBILITY





USA.gov is the U.S. government's official web portal to all federal, state and local government web resources and services.